星链-34167 (STARLINK-34167)

导读

STARLINK-34167是美国SpaceX星链(Starlink)星座中的卫星,于2025年6月5日发射。星链星座旨在近地轨道构建全球卫星互联网,为基础设施匮乏的偏远、乡村区域提供高速低延迟宽带服务。STARLINK-34167加入星座后,将进一步扩展星链网络的覆盖范围与服务容量,推进全球卫星互联网组网进程。

基本信息
目录编号:
64228
目录名称:
STARLINK-34167
国际标识:
2025-117AB
轨道中心:
EARTH
卫星名称:
星链-34167
卫星全名:
星链-34167 (STARLINK-34167)
卫星状态:
在轨 (已飞行461 天)
发射日期:
2025-05-31 UTC
国别 :
美国 (US)
星等 :
--
轨道信息
数据来源 国际轨道数据
星历时间: 2026-09-03T20:42:08+0800
15小时前
查看轨道信息
半长轴: 6840.839km
偏心率: 0.0001307
轨道倾角: 53.159°
近地点辐角 78.936°
升交点赤经 289.305°
平近点角 281.179°
近地点: 461.807km
远地点: 463.597km
周期: 93.848分钟
每日圈数: 15.344006
详细信息
固有亮度:
5
最大亮度:
2.5
卫星平台:
Starlink V1.0
覆盖范围:
全球
运营商:
太空探索技术公司
运营商所在国:
美国
制造商(研发单位):
太空探索技术公司
制造商所在国:
美国
使用方式:
暂无
卫星简介
Starlink 计划是 SpaceX 推出的全球卫星互联网项目,通过发射低轨道卫星,为全球尤其是偏远地区提供高速、低延迟的互联网服务。自 2019 年起,Starlink 已部署数千颗卫星,旨在缩小全球数字鸿沟,推动互联网普及。该项目还为军事、航空等行业提供通信支持,带来广泛经济效益。
2D轨道图
3D轨道图
轨道高度分析图
轨道倾角分析图
轨道综合分析图
查看轨道综合分析图